Location: ????????
(42.0252°N, 44.1904°E)
Time: 14:27:36
(UTC+00:00)

Daily predictions for brighter satellites

Satellite Brightness Start Highest point End
(mag) Time Altitude Azimuth Time Altitude Azimuth Time Altitude Azimuth
H-2A R/B 2.3 17:09:33 10° NNE 17:13:58 57° ESE 17:18:23 10° S
ATLAS 2AS CENTAUR R/B 2.8 17:07:18 10° NW 17:14:21 78° WSW 17:20:55 10° SSE
Cosmos 1536 Rocket 4.3 17:11:52 10° SSE 17:15:45 33° E 17:19:40 10° NNE
Okean-O 3.9 17:12:01 10° S 17:16:13 42° W 17:20:27 10° NNW
Ariane Rocket 3.6 17:12:29 10° SE 17:17:15 42° ENE 17:22:01 10° N
Cosmos 1703 4.3 17:17:32 10° SSE 17:20:46 26° E 17:24:02 10° NNE
Cosmos 1975 Rocket 4.0 17:17:22 10° SSW 17:21:42 53° W 17:26:02 10° N
Cosmos 1709 Rocket 4.2 17:15:57 10° N 17:22:13 80° W 17:28:31 10° S
Cosmos 1954 Rocket 4.5 17:19:31 10° NNW 17:24:43 62° WSW 17:29:49 10° S
SPOT 3 Rocket 4.4 17:23:21 10° SE 17:28:00 34° ENE 17:32:41 10° N
Landsat 7 4.1 17:23:43 10° S 17:28:23 68° WSW 17:33:06 10° NNW
NOSS 2-1 (E) 4.5 17:23:28 10° NW 17:28:25 75° WSW 17:35:31 10° SSE
Terra 3.8 17:27:17 10° E 17:29:59 15° ENE 17:32:43 10° NNE
PSLV R/B 3.9 17:26:40 10° NNE 17:30:52 78° ESE 17:35:01 10° S
SPOT 5 4.2 17:28:45 10° ESE 17:31:55 20° ENE 17:35:04 10° NNE
Cosmos 2315 Rocket 4.4 17:26:20 10° SSW 17:32:38 70° W 17:38:54 10° N
Cosmos 2074 Rocket 4.4 17:29:56 10° N 17:36:00 49° ENE 17:41:56 10° SSE
Cosmos 2082 Rocket 3.2 17:33:27 10° SSE 17:38:01 25° ESE 17:42:36 10° NE
Cosmos 1850 Rocket 4.1 17:34:39 10° NNW 17:39:49 63° ENE 17:44:32 12° SSE
IRAS Rocket 4.4 17:34:31 10° NNE 17:39:59 52° ESE 17:45:20 10° S
Cosmos 1544 Rocket 3.7 17:35:39 10° N 17:40:00 79° W 17:44:20 10° S
Cosmos 1331 Rocket 4.2 17:35:10 10° S 17:40:17 53° ESE 17:45:26 10° NNE
RESURS DK-1 2.4 17:37:31 10° NNW 17:41:39 67° ENE 17:45:11 14° SE
CZ-4B R/B 0.9 17:39:51 10° NNE 17:42:44 77° ESE 17:45:37 10° S
MOS 1 4.5 17:37:27 10° S 17:43:08 79° WSW 17:48:52 10° NNW
Cosmos 1271 Rocket 3.3 17:42:06 10° NNW 17:46:01 59° W 17:49:50 10° S
Cosmos 1455 2.6 17:43:06 10° NNW 17:46:54 63° W 17:50:40 10° S
USA 32 4.2 17:42:09 10° S 17:47:21 75° W 17:52:36 10° N
Spot 2 Rocket 4.4 17:43:41 13° SE 17:47:38 34° ENE 17:52:12 10° N
GEOS 3 Rocket 3.6 17:47:03 13° SE 17:51:34 87° ENE 17:56:43 10° NW
Helios 1A Rocket 4.1 17:52:40 15° ESE 17:55:14 29° ENE 17:58:48 10° N
Lacrosse 5 3.5 17:51:53 10° WNW 17:56:04 26° WSW 18:00:16 10° S
SPOT 1/Viking Rocket 3.8 17:51:16 10° S 17:56:23 71° WSW 18:01:34 10° NNW
Cosmos 2084 Rocket 4.2 17:54:28 10° NNW 17:58:09 39° NE 18:00:57 16° ESE
Cosmos 1656 4.1 17:56:43 10° NNW 18:02:07 59° WSW 18:07:13 12° S
Delta 2 Rocket 3.9 18:00:31 10° WSW 18:03:23 26° S 18:04:22 22° SSE
Meteor 1-21 Rocket 4.3 17:58:59 10° S 18:04:28 62° E 18:10:06 10° NNE
ERS-1 Rocket 3.6 18:02:08 18° SE 18:05:33 42° ENE 18:10:16 10° N
Cosmos 1452 Rocket 4.4 18:00:34 10° SW 18:05:41 53° WNW 18:10:51 10° N
MetOp-B 4.2 18:00:41 12° SSE 18:05:42 84° WSW 18:11:06 10° NNW
Cosmos 1110 Rocket 4.2 18:04:00 10° SSW 18:09:16 78° WNW 18:14:36 10° NNE
Cosmos 2154 Rocket 4.1 18:04:03 10° N 18:10:13 63° E 18:14:56 18° SSE
Cosmos 1302 Rocket 4.2 18:07:33 11° S 18:12:18 48° ESE 18:17:17 10° NNE
Cosmos 1892 4.1 18:16:50 20° ESE 18:17:25 20° E 18:20:15 10° NE
Cosmos 192 4.3 18:13:14 10° S 18:18:03 64° ESE 18:22:54 10° NNE
SL-8 R/B 3.8 18:15:57 10° WNW 18:20:43 66° SSW 18:23:26 25° SE
X-37B 0.2 18:19:34 10° WNW 18:22:21 71° SSW 18:23:03 45° SE
Cosmos 1697 Rocket 2.7 18:16:58 10° NNW 18:22:37 86° WSW 18:26:22 22° SSE
Cosmos 2228 3.0 18:18:45 10° N 18:23:01 83° W 18:25:45 21° S
USA 267 4.2 18:18:07 10° ENE 18:23:13 24° SE 18:25:02 21° SSE
Cosmos 1980 Rocket 2.7 18:17:40 10° NNW 18:23:13 50° ENE 18:26:36 23° SE
Cosmos 968 Rocket 4.0 18:18:35 10° N 18:23:37 46° ENE 18:26:30 24° SE
SL-16 R/B 4.2 18:21:38 10° N 18:25:10 17° NE 18:28:41 10° E
Cosmos 1892 Rocket 3.9 18:23:47 26° SSE 18:25:50 45° E 18:30:00 10° NNE
ATLAS 5 CENTAUR R/B 1.7 18:28:11 32° SE 18:28:41 34° ESE 18:32:16 10° NE
Cosmos 2369 3.9 18:25:40 10° NNW 18:31:23 65° ENE 18:34:39 26° SE
Meteor 2-1 Rocket 4.1 18:30:53 10° N 18:36:25 89° E 18:39:55 24° S
Cosmos 2058 Rocket 3.8 18:33:07 10° N 18:37:17 38° ENE 18:38:48 29° ESE
COSMOS 2406 3.4 18:31:52 10° SSW 18:37:38 75° WNW 18:43:25 10° NNE
Resurs 01 Rocket 3.8 18:34:22 10° SW 18:37:42 21° W 18:41:03 10° NW
CZ-2C R/B 3.6 18:35:15 10° NNE 18:39:47 74° ESE 18:42:21 25° S
Cosmos 1408 2.7 18:40:50 43° ESE 18:41:19 46° E 18:44:38 10° NNE
Cosmos 1833 Rocket 4.1 18:38:37 10° SW 18:43:50 40° WNW 18:49:08 10° N
SJ 16-02 3.8 18:46:19 10° NE 18:47:43 11° NE 18:49:07 10° ENE
Cosmos 1867 3.6 18:46:00 10° NNW 18:51:29 73° NE 18:53:59 33° SE
Cosmos 1825 3.0 18:58:47 34° E 18:58:47 34° E 19:02:08 10° NNE
Cosmos 2322 Rocket 4.0 18:55:18 10° N 18:59:34 21° NE 19:02:53 13° E
Cosmos 1606 Rocket 4.2 18:56:26 10° NNW 19:00:38 49° W 19:02:42 27° SSW
Terra 2.1 19:05:11 33° S 19:07:13 64° W 19:11:57 10° NNW
Cosmos 1869 4.1 19:03:35 10° N 19:07:13 36° ENE 19:07:32 35° E
ARIANE 5 R/B 2.6 19:06:42 44° S 19:08:07 83° W 19:12:33 10° NNW
SPOT 5 3.7 19:07:44 23° SSW 19:09:46 37° W 19:13:47 10° NNW
GP-B 3.1 19:06:14 10° N 19:10:39 63° E 19:11:35 50° SE
Cosmos 2341 Rocket 3.9 19:05:07 10° N 19:11:28 87° E 19:14:23 34° S
Cosmos 2278 3.7 19:07:37 10° NNW 19:13:22 73° ENE 19:15:31 39° SE
Meteor 1-11 4.4 19:16:26 23° SSW 19:19:54 67° WNW 19:25:28 10° N
Cosmos 1992 Rocket 3.9 19:17:33 33° SSW 19:19:56 87° ESE 19:25:13 10° NNE
SAR-Lupe-4 3.6 19:17:38 10° NNE 19:21:01 64° E 19:21:01 64° E
Cosmos 2082 Rocket 3.1 19:16:17 10° SW 19:21:47 47° WNW 19:27:17 10° NNE
USA 276 3.6 19:22:00 10° NW 19:24:45 31° NNE 19:25:06 30° NE
FALCON 9 DEB 3.6 19:22:21 10° NW 19:25:28 50° NNE 19:25:28 50° NNE
Okean 1-7 Rocket 3.5 19:26:08 58° S 19:26:59 82° E 19:31:30 10° N
Cosmos 1486 Rocket 4.0 19:22:48 10° NNW 19:28:03 75° ENE 19:29:27 49° SE
Cosmos 1758 Rocket 4.4 19:28:09 34° E 19:28:09 34° E 19:32:01 10° NNE
ASTEX 1 3.4 19:25:32 10° N 19:30:33 81° W 19:32:10 44° SSW
Cosmos 1633 3.6 19:31:28 33° ENE 19:31:28 33° ENE 19:33:53 10° NNE
Gbstr 26 Del rocket 4.0 19:34:11 32° E 19:34:11 32° E 19:36:59 10° ENE
Cosmos 2360 Rocket 3.8 19:29:38 10° N 19:34:17 25° NE 19:37:03 17° E
Cosmos 2181 Rocket 4.0 19:32:19 34° SSW 19:35:12 81° W 19:41:29 10° N
SAR-Lupe-1 4.3 19:34:25 10° N 19:37:57 63° WNW 19:38:06 63° W
Cosmos 1821 Rocket 4.4 19:34:17 10° N 19:40:18 49° ENE 19:42:05 38° ESE
Cosmos-2242 3.7 19:37:29 10° N 19:41:28 39° ENE 19:41:34 39° E
Cosmos 1812 Rocket 3.9 19:37:15 10° N 19:41:36 51° E 19:41:53 50° E
Cosmos 1606 4.1 19:41:32 10° NNE 19:44:37 28° ENE 19:44:37 28° ENE
Cosmos 1602 Rocket 3.3 19:51:22 82° SSE 19:51:32 85° E 19:55:52 10° N
Cosmos 44 4.4 19:57:25 29° E 19:57:25 29° E 20:00:11 10° NE
Cosmos 1354 Rocket 4.1 19:52:35 10° NNW 19:57:52 67° ENE 19:58:50 55° ESE
Nadezhda 3 Rocket 4.0 19:58:38 49° SE 20:00:03 63° E 20:06:08 10° NNE
Spot 4 3.8 20:03:36 65° ESE 20:04:06 72° ENE 20:08:53 10° N
Cosmos 1503 Rocket 3.8 20:01:10 10° NNW 20:06:28 84° WSW 20:07:12 66° S
USA 267 3.2 20:00:09 10° NE 20:06:44 90° SSE 20:12:16 15° SW
Cosmos 1980 Rocket 3.7 20:02:24 10° NW 20:06:50 24° WSW 20:08:21 21° SW
ALOS 2 3.2 20:06:49 45° E 20:07:00 45° ENE 20:11:12 10° N
SL-16 R/B 2.1 20:04:20 10° NNW 20:10:03 87° WSW 20:11:07 61° SSE
Cosmos 2219 Rocket 4.1 20:05:44 10° N 20:10:04 22° NE 20:13:19 14° E
Cosmos 1777 Rocket 4.3 20:06:34 10° NNW 20:11:47 57° ENE 20:12:41 50° ESE
ATLAS 5 CENTAUR R/B 3.7 20:10:17 10° W 20:13:17 22° NW 20:16:34 10° NNE
ERS-2 4.2 20:12:44 10° NE 20:14:13 18° ENE 20:14:13 18° ENE
Cosmos 2058 3.3 20:17:43 56° ENE 20:17:43 56° ENE 20:21:20 10° NNE
Cosmos 1953 Rocket 4.3 20:18:46 41° ENE 20:18:46 41° ENE 20:22:30 10° NNE
H-2A R/B 3.7 20:16:16 10° NNE 20:20:00 63° ENE 20:20:00 63° ENE
Meteor 2-20 4.5 20:19:54 47° SSW 20:21:40 72° W 20:27:46 10° N
Cosmos 1825 Rocket 3.5 20:26:59 77° NNE 20:26:59 77° NNE 20:31:02 10° N
SJ 16-02 1.3 20:22:26 10° NNW 20:26:38 76° WNW 20:26:38 76° WNW
SL-4 R/B 2.9 20:29:23 41° N 20:29:23 41° N 20:32:32 10° NE
Cosmos 2221 3.4 20:34:40 10° N 20:38:38 39° ENE 20:38:38 39° ENE
USA 234 3.7 20:34:46 19° ESE 20:39:32 59° NNE 20:45:57 10° NW
Cosmos 2322 Rocket 2.2 20:38:29 10° NNW 20:44:07 65° WSW 20:44:40 61° SW
Cosmos 1934 Rocket 3.9 20:42:55 10° N 20:49:03 84° E 20:50:15 61° SSE
Cosmos 1842 Rocket 4.4 20:46:59 10° N 20:51:11 41° ENE 20:51:11 41° ENE
Cosmos 1763 Rocket 3.8 21:01:35 53° ESE 21:01:35 53° ESE 21:06:43 10° NNE
Cosmos 2333 Rocket 2.3 20:59:11 10° NNW 21:04:58 72° ENE 21:06:07 56° SE
ADEOS Rocket 3.7 21:06:17 45° SSW 21:08:21 58° W 21:15:59 10° NNW
Cosmos 1339 Rocket 4.5 21:10:12 56° SW 21:11:29 73° W 21:17:38 10° N
Cosmos 1933 4.2 21:10:01 10° N 21:13:22 45° NE 21:13:22 45° NE
Cosmos 1727 Rocket 4.4 21:14:15 45° SE 21:15:36 52° E 21:21:40 10° NNE
Cosmos 990 Rocket 4.2 21:11:37 10° NNW 21:16:43 61° ENE 21:17:26 55° ESE
USA 290 4.4 21:14:13 10° N 21:16:13 25° NE 21:16:13 25° NE
Cosmos 2360 Rocket 2.4 21:13:05 10° NNW 21:18:35 53° WSW 21:18:47 53° WSW
COSMOS 2487 4.4 21:20:41 25° N 21:20:41 25° N 21:22:08 10° NNE
Gbstr 26 Del rocket 4.5 21:16:35 17° W 21:19:32 39° NNW 21:24:25 10° NE
Cosmos 2227 Rocket 4.4 21:18:48 11° ESE 21:19:37 12° E 21:21:31 10° ENE
Cosmos 1812 4.1 21:16:32 10° N 21:19:34 32° ENE 21:19:34 32° ENE
CZ-2D R/B 4.3 21:18:27 10° ENE 21:20:55 13° E 21:22:03 13° ESE
Cosmos 1340 Rocket 4.3 21:23:11 29° WNW 21:23:11 29° WNW 21:26:22 10° NNW
Meteor 2-3 Rocket 3.5 21:22:33 69° SSE 21:23:12 79° E 21:28:47 10° NNE
NOSS 3-2 (A) 3.1 21:26:18 63° SE 21:26:40 65° ESE 21:32:44 10° NE
ISS -1.9 21:27:56 31° N 21:27:56 31° N 21:30:18 10° NE
Cosmos 2333 4.1 21:22:20 10° NNW 21:28:07 74° WSW 21:28:44 67° SSW
Cosmos 540 Rocket 3.6 21:30:20 58° ESE 21:30:28 58° ESE 21:35:32 10° NNE
Cosmos 468 Rocket 3.8 21:30:30 77° S 21:30:54 86° ESE 21:36:15 10° NNE
Cosmos 1076 Rocket 3.6 21:32:58 74° NNW 21:32:58 74° NNW 21:37:00 10° N
CENTAUR R/B 2.3 21:35:23 62° S 21:36:13 71° ESE 21:42:59 10° NE
SL-27 R/B 4.3 21:40:00 26° NNW 21:40:00 26° NNW 21:41:58 10° N
Cosmos 1605 Rocket 4.2 21:36:14 10° NNW 21:42:32 61° W 21:43:48 51° SW
Cosmos 2237 Rocket 3.8 21:40:03 10° N 21:45:00 30° NE 21:49:39 11° ESE
Cosmos 1862 4.3 21:45:48 39° ENE 21:45:48 39° ENE 21:49:02 10° NNE
Cosmos 1782 3.2 21:43:34 10° N 21:46:50 58° NNW 21:46:50 58° NNW
Cosmos 2297 Rocket 3.2 21:47:31 32° ESE 21:48:16 33° ESE 21:53:14 10° NE
ERS-2 4.1 21:46:10 10° NNW 21:48:35 21° WNW 21:48:35 21° WNW
COSMOS 2428 2.6 21:45:37 10° NNW 21:51:22 85° ENE 21:52:40 56° SSE
SL-16 R/B 4.4 21:51:31 10° WNW 21:52:57 11° W 21:52:57 11° W
Cosmos 2151 3.2 21:54:31 60° WNW 21:54:31 60° WNW 21:58:31 10° N
Cosmos 2219 Rocket 2.1 21:48:52 10° NNW 21:54:29 64° WSW 21:55:00 61° SW
Cosmos 2322 3.7 21:57:49 10° NNW 22:03:24 58° WSW 22:03:51 56° SW
Cosmos 1898 Rocket 3.3 22:01:09 10° NNW 22:06:20 75° WSW 22:06:48 69° SSW
SL-4 R/B 4.5 22:06:33 10° NW 22:09:13 19° N 22:12:00 10° NE
Cosmos 1151 Rocket 3.7 22:06:37 10° N 22:10:51 46° ENE 22:11:36 42° ESE
COSMOS 2455 3.6 22:05:18 10° NNW 22:11:08 49° NE 22:16:26 12° SE
Cosmos 1937 Rocket 3.4 22:06:24 10° NNW 22:11:40 88° ENE 22:12:39 60° SSE
NOSS 0 Rocket 4.0 22:07:19 10° NNW 22:13:31 76° ENE 22:16:22 34° SE
NOSS 3-2 (C) 3.1 22:14:29 58° SSW 22:15:35 78° ESE 22:21:48 10° NE
SL-24 R/B 4.5 22:14:37 57° S 22:15:46 86° WSW 22:20:46 10° NNW
Cosmos 1802 Rocket 4.1 22:11:19 10° N 22:17:35 72° E 22:20:08 38° SSE
Cosmos 2285 Rocket 4.4 22:19:00 37° WSW 22:21:12 53° WNW 22:27:30 10° NNE
SL-24 DEB 4.0 22:21:20 73° S 22:21:46 88° WSW 22:26:25 10° N
USA 234 3.5 22:22:03 43° SW 22:22:38 44° SW 22:28:50 10° WNW
Cosmos 1328 Rocket 4.5 22:22:30 10° N 22:26:42 42° ENE 22:28:01 33° ESE
Cosmos 1184 Rocket 4.2 22:23:52 10° N 22:25:44 34° N 22:25:44 34° N
Cosmos 2061 Rocket 4.3 22:22:47 10° N 22:29:11 64° E 22:32:33 29° SSE
Cosmos 1814 Rocket 4.0 22:29:11 55° SSE 22:30:11 71° ESE 22:35:19 10° NNE
NPP 4.2 22:25:01 10° NNE 22:30:15 49° E 22:32:00 36° SSE
USA 238 DEB 3.5 22:31:21 43° SW 22:33:43 83° NW 22:40:33 10° NE
USA 238 3.5 22:31:30 43° SW 22:33:51 84° NW 22:40:41 10° NE
Meteor 1-27 Rocket 4.4 22:32:16 10° N 22:37:40 48° ENE 22:41:03 22° SE
Cosmos 1340 2.7 22:37:27 10° NNW 22:40:50 67° NW 22:40:50 67° NW
MOZ.5/SAFIR/RUBIN 5/SL-8 3.9 22:41:58 53° WSW 22:42:24 55° W 22:47:03 10° NNW
Meteor 2-6 Rocket 4.3 22:38:52 10° NNW 22:44:40 63° W 22:46:17 45° SSW
Cosmos 220 Rocket 3.9 22:41:10 10° NNW 22:45:36 77° WSW 22:46:11 64° S
Resurs 1-4 Rocket 2.1 22:40:57 10° NNE 22:46:18 83° ESE 22:48:00 45° S
Cosmos 1766 Rocket 3.4 22:46:34 65° SSW 22:47:10 84° W 22:51:31 10° N
Cosmos 1980 3.6 22:42:12 10° NNW 22:47:54 87° WSW 22:50:41 32° SSE
Cosmos 372 Rocket 4.0 22:43:04 10° NNW 22:48:14 60° WSW 22:49:16 49° SSW
Cosmos 2333 Rocket 4.0 22:45:07 10° WNW 22:48:05 16° W 22:48:05 16° W
Cosmos 1570 Rocket 4.0 22:48:03 47° S 22:49:33 77° ESE 22:54:50 10° NNE
Cosmos 1515 4.1 22:50:41 10° N 22:54:26 58° E 22:55:18 45° SE
Cosmos 841 Rocket 4.4 22:53:16 30° W 22:54:50 37° WNW 22:59:39 10° N
Cosmos 1459 Rocket 4.4 22:52:12 10° NNW 22:57:51 43° W 22:59:36 35° SW
CZ-2D R/B 2.0 22:56:16 10° N 23:01:30 76° WNW 23:03:21 41° SSW
Cosmos 2227 Rocket 2.1 23:00:37 40° SSW 23:02:45 89° ESE 23:08:28 10° NNE
Cosmos 2208 Rocket 4.1 23:00:52 40° S 23:02:53 79° ESE 23:08:17 10° NNE
ISS -0.8 23:02:21 10° NW 23:04:36 16° N 23:06:51 10° NE
SL-16 R/B 3.4 22:59:56 10° NNW 23:05:20 42° ENE 23:10:42 10° SE
Cosmos 1408 Rocket 3.8 23:04:14 39° SSE 23:05:38 63° E 23:09:53 10° NNE
Meteor 1-10 Rocket 4.4 23:01:39 10° NNW 23:07:26 58° W 23:09:38 36° SSW
Thor Agena Rocket 4.4 23:04:40 10° N 23:09:24 38° WNW 23:11:09 29° WSW
BREEZE-M DEB (TANK) 4.3 23:10:00 25° SSE 23:10:00 25° SSE 23:12:34 10° E
SL-16 R/B 2.5 23:07:08 25° S 23:11:00 80° WSW 23:17:17 10° NNW
Cosmos 2263 Rocket 3.9 23:07:41 12° SSE 23:11:25 24° ESE 23:15:45 10° NE
Cosmos 2082 4.3 23:09:28 26° SSE 23:12:16 48° ESE 23:17:40 10° NE
ADEOS II 2.1 23:07:09 10° NNE 23:12:26 76° ESE 23:14:55 32° S
MSX 4.4 23:07:03 10° NNE 23:12:42 53° E 23:16:15 22° SSE
AQUA 3.7 23:09:53 10° NNE 23:14:41 85° WNW 23:16:29 38° SSW
Cosmos 1356 Rocket 3.9 23:16:44 37° W 23:17:19 39° WNW 23:21:06 10° N
Helios 1A 3.9 23:14:05 14° SE 23:17:23 47° ENE 23:21:24 10° N
Geosat 4.5 23:18:49 35° SW 23:19:46 39° WSW 23:24:28 10° NW
Meteor 1-28 Rocket 3.2 23:18:30 35° SSE 23:19:57 75° ENE 23:23:40 10° N
Cosmos 1666 3.4 23:23:15 27° SSE 23:24:54 46° E 23:28:29 10° NNE
UNK 3.7 23:23:04 33° S 23:25:02 66° WSW 23:29:42 10° NNW
Cosmos 2233 Rocket 3.9 23:19:29 10° NNW 23:25:36 69° W 23:29:21 25° S
Okean 3 Rocket 4.3 23:24:43 33° WSW 23:25:59 41° WNW 23:30:18 10° N
Cosmos 1400 Rocket 2.7 23:25:02 44° SSW 23:26:13 76° W 23:30:16 10° N
CENTAUR R/B 4.1 23:22:31 11° W 23:27:37 28° NW 23:33:44 10° NNE
Cosmos 1725 Rocket 4.5 23:22:33 10° NNW 23:28:19 42° W 23:31:01 28° SW
Cosmos 2237 Rocket 2.6 23:23:52 10° NW 23:29:10 42° WSW 23:31:24 29° SSW
Lacrosse 4 Rocket 2.0 23:25:45 10° NNW 23:29:45 54° ENE 23:33:47 10° SE
ATLAS CENTAUR R/B 3.0 23:28:43 20° SSE 23:31:09 32° ESE 23:35:28 10° NE
Cosmos 2297 Rocket 3.1 23:29:19 23° WSW 23:32:12 37° WNW 23:37:25 10° N
Cosmos 1315 Rocket 4.3 23:30:11 14° SSE 23:32:59 31° E 23:36:29 10° NNE
Cosmos 1602 3.8 23:33:08 41° SW 23:34:10 57° W 23:37:55 10° N
Cosmos 2219 3.5 23:33:09 28° SW 23:36:02 57° WNW 23:41:35 10° NNE
IDEFIX/ARIANE 42P 2.5 23:30:51 10° N 23:36:03 76° WNW 23:38:55 27° SSW
Cosmos 1500 3.1 23:35:19 40° SSW 23:36:29 67° W 23:40:13 10° N
MOS 1 Rocket 4.1 23:35:13 29° SW 23:37:08 40° W 23:42:10 10° NNW
Cosmos 1500 Rocket 3.6 23:35:20 28° S 23:37:39 86° E 23:42:09 10° N
Meteor 1-25 Rocket 4.3 23:37:11 25° SSW 23:40:40 75° W 23:46:30 10° N
ALOS 4.3 23:38:09 10° NE 23:41:51 23° E 23:45:31 10° SE
Timation 2 Rocket 4.5 23:39:10 19° S 23:43:43 57° ESE 23:50:09 10° NNE
Cosmos 332 Rocket 4.2 23:43:21 10° NNW 23:48:14 65° ENE 23:53:07 10° SSE
SL-24 R/B - RUBIN 2 3.6 23:46:05 28° SW 23:48:36 85° WNW 23:53:06 10° NNE
SL-4 R/B 4.3 23:46:29 10° NW 23:49:36 24° NNE 23:52:56 10° ENE
OPS 6432 4.2 23:46:54 10° NW 23:49:57 89° SW 23:53:36 10° SE
IRS-1D 3.5 23:45:57 10° NNE 23:50:56 78° ESE 23:54:34 19° S
